sat.trackr.live / text

‹ back to catalog

STARLINK-3992

NORAD 52627 · 2022-052AF

PAYLOAD ACTIVE UNKNOWN

§ Identity

Operator
Country
US
Launch date
2022-05-14
Launch site
AFETR
Launch vehicle
Mass (kg)
RCS (m²)

Purposes: comms

External: N2YO · Heavens-Above · Gunter

§ Orbital elements

Epoch: 2026-05-24T18:13:15.693888Z

Period
95.44 min
Inclination
53.2137°
Eccentricity
0.0001223
Mean motion
15.08834794 rev/d
Perigee alt
538.9 km
Apogee alt
540.6 km
Semi-major
6,917.9 km
B*
2.2413e-5
RAAN
287.6295°
Arg perigee
101.7848°
Mean anomaly
258.3282°
Rev number
22,248

§ Raw data

STARLINK-39921 52627U 22052AF  26144.75920942  .00000069  00000+0  22413-4 0  99982 52627  53.2137 287.6295 0001223 101.7848 258.3282 15.08834794222488

JSON: /api/v1/satellites/52627 · /tle

For live sub-satellite position, see the globe view (requires WebGL).

§ Visibility from observer

Set your observer location to see the next 7 days of passes ≥ 10°. The values pass through the URL so the page stays shareable.

No JS? Fill the form by hand. The geolocation button needs JavaScript.